Time,TemperatureF,DewpointF,PressureIn,WindDirection,WindDirectionDegrees,WindSpeedMPH,WindSpeedGustMPH,Humidity,HourlyPrecipIn,Conditions,Clouds,dailyrainin,SolarRadiationWatts/m^2,SoftwareType,DateUTC
2013-12-31 00:02:00,36.0,35.0,-100.00,NW,314,3.0,9.0,95,0.01,,,0.02,0.000000,,2013-12-31 07:02:00,
2013-12-31 00:12:00,36.0,35.0,-100.00,NW,314,3.0,9.0,95,0.01,,,0.02,0.000000,,2013-12-31 07:12:00,
2013-12-31 00:42:00,36.0,34.0,-100.00,WNW,293,1.0,6.0,94,0.00,,,0.02,0.000000,,2013-12-31 07:42:00,
2013-12-31 00:52:00,36.0,34.0,-100.00,WNW,293,1.0,6.0,94,0.00,,,0.02,0.000000,,2013-12-31 07:52:00,
2013-12-31 01:02:00,36.0,34.0,-100.00,WNW,293,1.0,6.0,94,0.00,,,0.02,0.000000,,2013-12-31 08:02:00,
2013-12-31 01:11:00,36.0,34.0,-100.00,WNW,293,1.0,6.0,94,0.00,,,0.02,0.000000,,2013-12-31 08:11:00,
2013-12-31 01:42:00,35.0,34.0,-100.00,NNW,331,2.0,5.0,96,0.00,,,0.02,0.000000,,2013-12-31 08:42:00,
2013-12-31 01:52:00,35.0,34.0,-100.00,NNW,331,2.0,5.0,96,0.00,,,0.02,0.000000,,2013-12-31 08:52:00,
2013-12-31 02:01:00,35.0,34.0,-100.00,NNW,331,2.0,5.0,96,0.00,,,0.02,0.000000,,2013-12-31 09:01:00,
2013-12-31 02:11:00,35.0,34.0,-100.00,NNW,331,2.0,5.0,96,0.00,,,0.02,0.000000,,2013-12-31 09:11:00,
2013-12-31 02:43:00,35.0,34.0,-100.00,NNW,327,2.0,5.0,96,0.01,,,0.03,0.000000,,2013-12-31 09:43:00,
2013-12-31 02:53:00,35.0,34.0,-100.00,NNW,327,2.0,5.0,96,0.01,,,0.03,0.000000,,2013-12-31 09:53:00,
2013-12-31 03:02:00,35.0,34.0,-100.00,NNW,327,2.0,5.0,96,0.01,,,0.03,0.000000,,2013-12-31 10:02:00,
2013-12-31 03:12:00,35.0,34.0,-100.00,NNW,327,2.0,5.0,96,0.01,,,0.03,0.000000,,2013-12-31 10:12:00,
2013-12-31 03:43:00,36.0,35.0,-100.00,NW,307,4.0,8.0,95,0.00,,,0.03,0.000000,,2013-12-31 10:43:00,
2013-12-31 03:53:00,36.0,35.0,-100.00,NW,307,4.0,8.0,95,0.00,,,0.03,0.000000,,2013-12-31 10:53:00,
2013-12-31 04:02:00,36.0,35.0,-100.00,NW,307,4.0,8.0,95,0.00,,,0.03,0.000000,,2013-12-31 11:02:00,
2013-12-31 04:11:00,36.0,35.0,-100.00,NW,307,4.0,8.0,95,0.00,,,0.03,0.000000,,2013-12-31 11:11:00,
2013-12-31 04:43:00,36.0,34.0,-100.00,NW,310,3.0,8.0,94,0.00,,,0.03,0.000000,,2013-12-31 11:43:00,
2013-12-31 04:52:00,36.0,34.0,-100.00,NW,310,3.0,8.0,94,0.00,,,0.03,0.000000,,2013-12-31 11:52:00,
2013-12-31 05:02:00,36.0,34.0,-100.00,NW,310,3.0,8.0,94,0.00,,,0.03,0.000000,,2013-12-31 12:02:00,
2013-12-31 05:11:00,36.0,34.0,-100.00,NW,310,3.0,8.0,94,0.00,,,0.03,0.000000,,2013-12-31 12:11:00,
2013-12-31 05:42:00,36.0,34.0,-100.00,WNW,303,3.0,9.0,94,0.00,,,0.03,0.000000,,2013-12-31 12:42:00,
2013-12-31 06:11:00,36.0,34.0,-100.00,WNW,303,3.0,9.0,94,0.00,,,0.03,0.000000,,2013-12-31 13:11:00,
2013-12-31 06:42:00,37.0,34.0,-100.00,SW,234,5.0,11.0,88,0.00,,,0.03,0.000000,,2013-12-31 13:42:00,
2013-12-31 06:52:00,37.0,34.0,-100.00,SW,234,5.0,11.0,88,0.00,,,0.03,0.000000,,2013-12-31 13:52:00,
2013-12-31 07:02:00,37.0,34.0,-100.00,SW,234,5.0,11.0,88,0.00,,,0.03,0.000000,,2013-12-31 14:02:00,
2013-12-31 07:11:00,37.0,34.0,-100.00,SW,234,5.0,11.0,88,0.00,,,0.03,0.000000,,2013-12-31 14:11:00,
2013-12-31 07:43:00,37.0,34.0,-100.00,WSW,245,5.0,14.0,90,0.01,,,0.04,0.000000,,2013-12-31 14:43:00,
2013-12-31 07:52:00,37.0,34.0,-100.00,WSW,245,5.0,14.0,90,0.01,,,0.04,0.000000,,2013-12-31 14:52:00,
2013-12-31 08:02:00,37.0,34.0,-100.00,WSW,245,5.0,14.0,90,0.01,,,0.04,0.000000,,2013-12-31 15:02:00,
2013-12-31 08:11:00,37.0,34.0,-100.00,WSW,245,5.0,14.0,90,0.01,,,0.04,0.000000,,2013-12-31 15:11:00,
2013-12-31 08:43:00,37.0,34.0,-100.00,WSW,250,5.0,12.0,90,0.01,,,-99.99,0.000000,,2013-12-31 15:43:00,
2013-12-31 08:53:00,37.0,34.0,-100.00,WSW,250,5.0,12.0,90,0.01,,,-99.99,0.000000,,2013-12-31 15:53:00,
2013-12-31 09:03:00,37.0,34.0,-100.00,WSW,250,5.0,12.0,90,0.01,,,-99.99,0.000000,,2013-12-31 16:03:00,
2013-12-31 09:13:00,37.0,34.0,-100.00,WSW,250,5.0,12.0,90,0.01,,,-99.99,0.000000,,2013-12-31 16:13:00,
2013-12-31 09:43:00,38.0,33.0,-100.00,WSW,245,5.0,12.0,83,0.01,,,-99.99,0.000000,,2013-12-31 16:43:00,
2013-12-31 09:52:00,38.0,33.0,-100.00,WSW,245,5.0,12.0,83,0.01,,,-99.99,0.000000,,2013-12-31 16:52:00,
2013-12-31 10:02:00,38.0,33.0,-100.00,WSW,245,5.0,12.0,83,0.01,,,-99.99,0.000000,,2013-12-31 17:02:00,
2013-12-31 10:12:00,38.0,33.0,-100.00,WSW,245,5.0,12.0,83,0.01,,,-99.99,0.000000,,2013-12-31 17:12:00,
2013-12-31 10:42:00,38.0,33.0,-100.00,SW,226,4.0,12.0,81,0.00,,,0.06,16.000000,,2013-12-31 17:42:00,
2013-12-31 10:53:00,38.0,33.0,-100.00,SW,226,4.0,12.0,81,0.00,,,0.06,16.000000,,2013-12-31 17:53:00,
2013-12-31 11:02:00,38.0,33.0,-100.00,SW,226,4.0,12.0,81,0.00,,,0.06,16.000000,,2013-12-31 18:02:00,
2013-12-31 11:12:00,38.0,33.0,-100.00,SW,226,4.0,12.0,81,0.00,,,0.06,16.000000,,2013-12-31 18:12:00,
2013-12-31 11:42:00,39.0,33.0,-100.00,West,266,3.0,12.0,80,0.00,,,0.06,34.000000,,2013-12-31 18:42:00,
2013-12-31 11:53:00,39.0,33.0,-100.00,West,266,3.0,12.0,80,0.00,,,0.06,34.000000,,2013-12-31 18:53:00,
2013-12-31 12:01:00,39.0,33.0,-100.00,West,266,3.0,12.0,80,0.00,,,0.06,34.000000,,2013-12-31 19:01:00,
2013-12-31 12:11:00,39.0,33.0,-100.00,West,266,3.0,12.0,80,0.00,,,0.06,34.000000,,2013-12-31 19:11:00,
2013-12-31 12:43:00,40.0,33.0,-100.00,SW,231,5.0,17.0,76,0.00,,,0.06,61.000000,,2013-12-31 19:43:00,
2013-12-31 12:53:00,40.0,33.0,-100.00,SW,231,5.0,17.0,76,0.00,,,0.06,61.000000,,2013-12-31 19:53:00,
2013-12-31 13:02:00,40.0,33.0,-100.00,SW,231,5.0,17.0,76,0.00,,,0.06,61.000000,,2013-12-31 20:02:00,
2013-12-31 13:11:00,40.0,33.0,-100.00,SW,231,5.0,17.0,76,0.00,,,0.06,61.000000,,2013-12-31 20:11:00,
2013-12-31 13:42:00,40.0,32.0,-100.00,WSW,248,5.0,12.0,73,0.00,,,0.06,105.000000,,2013-12-31 20:42:00,
2013-12-31 13:53:00,40.0,32.0,-100.00,WSW,248,5.0,12.0,73,0.00,,,0.06,105.000000,,2013-12-31 20:53:00,
2013-12-31 14:02:00,40.0,32.0,-100.00,WSW,248,5.0,12.0,73,0.00,,,0.06,105.000000,,2013-12-31 21:02:00,
2013-12-31 14:11:00,40.0,32.0,-100.00,WSW,248,5.0,12.0,73,0.00,,,0.06,105.000000,,2013-12-31 21:11:00,
2013-12-31 14:43:00,41.0,32.0,-100.00,NW,324,3.0,11.0,69,0.00,,,0.06,144.000000,,2013-12-31 21:43:00,
2013-12-31 14:53:00,41.0,32.0,-100.00,NW,324,3.0,11.0,69,0.00,,,0.06,144.000000,,2013-12-31 21:53:00,
2013-12-31 15:03:00,41.0,32.0,-100.00,NW,324,3.0,11.0,69,0.00,,,0.06,144.000000,,2013-12-31 22:03:00,
2013-12-31 15:13:00,41.0,32.0,-100.00,NW,324,3.0,11.0,69,0.00,,,0.06,144.000000,,2013-12-31 22:13:00,
2013-12-31 15:43:00,40.0,32.0,-100.00,SW,217,3.0,12.0,73,0.00,,,0.06,125.000000,,2013-12-31 22:43:00,
2013-12-31 15:53:00,40.0,32.0,-100.00,SW,217,3.0,12.0,73,0.00,,,0.06,125.000000,,2013-12-31 22:53:00,
2013-12-31 16:02:00,40.0,32.0,-100.00,SW,217,3.0,12.0,73,0.00,,,0.06,125.000000,,2013-12-31 23:02:00,
2013-12-31 16:12:00,40.0,32.0,-100.00,SW,217,3.0,12.0,73,0.00,,,0.06,125.000000,,2013-12-31 23:12:00,
2013-12-31 16:43:00,37.0,32.0,-100.00,WSW,237,4.0,10.0,82,0.00,,,0.06,53.000000,,2013-12-31 23:43:00,
2013-12-31 16:53:00,37.0,32.0,-100.00,WSW,237,4.0,10.0,82,0.00,,,0.06,53.000000,,2013-12-31 23:53:00,
2013-12-31 17:02:00,37.0,32.0,-100.00,WSW,237,4.0,10.0,82,0.00,,,0.06,53.000000,,2014-01-01 00:02:00,
2013-12-31 17:11:00,37.0,32.0,-100.00,WSW,237,4.0,10.0,82,0.00,,,0.06,53.000000,,2014-01-01 00:11:00,
2013-12-31 17:42:00,36.0,31.0,-100.00,WSW,244,3.0,9.0,81,0.00,,,0.06,26.000000,,2014-01-01 00:42:00,
2013-12-31 17:52:00,36.0,31.0,-100.00,WSW,244,3.0,9.0,81,0.00,,,0.06,26.000000,,2014-01-01 00:52:00,
2013-12-31 18:02:00,36.0,31.0,-100.00,WSW,244,3.0,9.0,81,0.00,,,0.06,26.000000,,2014-01-01 01:02:00,
2013-12-31 18:11:00,36.0,31.0,-100.00,WSW,244,3.0,9.0,81,0.00,,,0.06,26.000000,,2014-01-01 01:11:00,
2013-12-31 18:42:00,35.0,30.0,-100.00,West,265,2.0,10.0,83,0.00,,,0.06,13.000000,,2014-01-01 01:42:00,
2013-12-31 18:52:00,35.0,30.0,-100.00,West,265,2.0,10.0,83,0.00,,,0.06,13.000000,,2014-01-01 01:52:00,
2013-12-31 19:02:00,35.0,30.0,-100.00,West,265,2.0,10.0,83,0.00,,,0.06,13.000000,,2014-01-01 02:02:00,
2013-12-31 19:11:00,35.0,30.0,-100.00,West,265,2.0,10.0,83,0.00,,,0.06,13.000000,,2014-01-01 02:11:00,
2013-12-31 19:42:00,33.0,30.0,-100.00,North,354,2.0,6.0,90,0.00,,,0.06,0.000000,,2014-01-01 02:42:00,
2013-12-31 19:52:00,33.0,30.0,-100.00,North,354,2.0,6.0,90,0.00,,,0.06,0.000000,,2014-01-01 02:52:00,
2013-12-31 20:02:00,33.0,30.0,-100.00,North,354,2.0,6.0,90,0.00,,,0.06,0.000000,,2014-01-01 03:02:00,
2013-12-31 20:12:00,33.0,30.0,-100.00,North,354,2.0,6.0,90,0.00,,,0.06,0.000000,,2014-01-01 03:12:00,
2013-12-31 20:44:00,33.0,29.0,-100.00,NW,316,3.0,5.0,85,0.00,,,0.06,0.000000,,2014-01-01 03:44:00,
2013-12-31 20:53:00,33.0,29.0,-100.00,NW,316,3.0,5.0,85,0.00,,,0.06,0.000000,,2014-01-01 03:53:00,
2013-12-31 21:03:00,33.0,29.0,-100.00,NW,316,3.0,5.0,85,0.00,,,0.06,0.000000,,2014-01-01 04:03:00,
2013-12-31 21:13:00,33.0,29.0,-100.00,NW,316,3.0,5.0,85,0.00,,,0.06,0.000000,,2014-01-01 04:13:00,
2013-12-31 21:43:00,33.0,30.0,-100.00,NNW,344,2.0,6.0,88,0.00,,,0.06,0.000000,,2014-01-01 04:43:00,
2013-12-31 21:53:00,33.0,30.0,-100.00,NNW,344,2.0,6.0,88,0.00,,,0.06,0.000000,,2014-01-01 04:53:00,
2013-12-31 22:02:00,33.0,30.0,-100.00,NNW,344,2.0,6.0,88,0.00,,,0.06,0.000000,,2014-01-01 05:02:00,
2013-12-31 22:12:00,33.0,30.0,-100.00,NNW,344,2.0,6.0,88,0.00,,,0.06,0.000000,,2014-01-01 05:12:00,
2013-12-31 22:43:00,33.0,30.0,-100.00,NNW,332,2.0,6.0,87,0.00,,,0.05,0.000000,,2014-01-01 05:43:00,
2013-12-31 22:52:00,33.0,30.0,-100.00,NNW,332,2.0,6.0,87,0.00,,,0.05,0.000000,,2014-01-01 05:52:00,
2013-12-31 23:02:00,33.0,30.0,-100.00,NNW,332,2.0,6.0,87,0.00,,,0.05,0.000000,,2014-01-01 06:02:00,
2013-12-31 23:12:00,33.0,30.0,-100.00,NNW,332,2.0,6.0,87,0.00,,,0.05,0.000000,,2014-01-01 06:12:00,
2013-12-31 23:42:00,33.0,30.0,-100.00,WNW,288,2.0,4.0,87,0.00,,,0.04,0.000000,,2014-01-01 06:42:00,
2013-12-31 23:52:00,33.0,30.0,-100.00,WNW,288,2.0,4.0,87,0.00,,,0.04,0.000000,,2014-01-01 06:52:00,